Regional Weather Roundup
Issued by NWS

Home | Current Version | Previous Version | Text Only | Print | Product List | Glossary Off
Versions: 1 2 3 4 5 6 7 8 9 10 11 12 13 14 15 16 17 18 19 20 21 22 23 24 25 26 27 28 29 30 31 32 33 34 35 36 37 38 39 40 41 42 43 44 45 46 47 48 49 50

000
ASUS43 KMKX 301525
RWRWI

WISCONSIN REGIONAL WEATHER ROUNDUP
NATIONAL WEATHER SERVICE MILWAUKEE/SULLIVAN WI
1000 AM CDT THU OCT 30 2014

NOTE: "FAIR" INDICATES FEW OR NO CLOUDS BELOW 12,000 FEET WITH NO
SIGNIFICANT WEATHER AND/OR OBSTRUCTIONS TO VISIBILITY.

WIZ001-002-006>008-014>016-023>028-301600-
NORTHWEST WISCONSIN

CITY           SKY/WX    TMP DP  RH WIND       PRES   REMARKS
SUPERIOR ARPT  CLOUDY    39  34  84 NW5       30.09R
ASHLAND        CLOUDY    39  33  79 W6        30.08R WCI  35
HAYWARD        CLOUDY    38  32  79 CALM      30.08R
SIREN          CLOUDY    38  34  84 CALM      30.09R
CUMBERLAND     CLOUDY    36  32  87 CALM      30.08R
RICE LAKE      CLOUDY    37  34  89 CALM      30.09S
CHETEK         CLOUDY    37  34  89 CALM      30.08R
LADYSMITH      PTSUNNY   38  35  87 CALM      30.09R
EAU CLAIRE     CLOUDY    40  33  76 CALM      30.07S
MENOMONIE      CLOUDY    39  35  84 CALM      30.07S
NEW RICHMOND   PTSUNNY   40  35  79 NE3       30.07S
OSCEOLA        CLOUDY    41  35  81 CALM      30.11R
$$

WIZ003>005-009-010-017-018-301600-
NORTH CENTRAL WISCONSIN

CITY           SKY/WX    TMP DP  RH WIND       PRES   REMARKS
MANITOWISH WTR CLOUDY    35  32  87 NW6       30.04S WCI  30
ARBOR VITAE    CLOUDY    39  34  81 NW7       30.04R WCI  34
WOODRUFF       CLOUDY    39  34  81 NW7       30.04R WCI  34
RHINELANDER    CLOUDY    37  31  78 W7        30.05R WCI  32
EAGLE RIVER    CLOUDY    37  32  80 CALM      30.02F
LAND O LAKES   CLOUDY    37  33  85 CALM      30.03F
PHILLIPS       CLOUDY    37  32  84 CALM      30.05S
TOMAHAWK       CLOUDY    37  32  83 CALM      30.06R
MEDFORD        CLOUDY    36  33  90 CALM      30.06R
MERRILL        CLOUDY    36  34  92 W3        30.06S
$$

WIZ029-030-035-036-043>047-301600-
CENTRAL WISCONSIN

CITY           SKY/WX    TMP DP  RH WIND       PRES   REMARKS
WAUSAU         CLOUDY    37  34  89 CALM      30.06S
MOSINEE        CLOUDY    36  36 100 SW3       30.07S
MARSHFIELD     CLOUDY    40  35  83 SW3       30.06S
STEVENS POINT  CLOUDY    37  32  84 W3        30.08S
WAUPACA        CLOUDY    40  39  94 SW3       30.09S
WAUTOMA        CLOUDY    37  34  89 CALM      30.09S
WISC RAPIDS    CLOUDY    40  35  83 W3        30.09S
CAMP DOUGLAS   CLOUDY    39  39 100 E1        30.08S
$$

WIZ011>013-019>022-031-037>040-048>050-301600-
NORTHEAST WISCONSIN

CITY           SKY/WX    TMP DP  RH WIND       PRES   REMARKS
ANTIGO         CLOUDY    36  33  90 W6        30.05S WCI  31
SHAWANO        CLOUDY    40  35  80 CALM      30.08F
OCONTO         CLOUDY    41  36  81 CALM      30.07F
STURGEON BAY   CLOUDY    45  36  70 SW9       30.07S
GREEN BAY      CLOUDY    43  37  79 VRB3      30.08S
MANITOWOC      CLOUDY    45  36  70 SW7       30.09F
APPLETON       PTSUNNY   39  34  81 SW8       30.08F WCI  34
CLINTONVILLE   CLOUDY    37  34  87 SW3       30.08S
OSHKOSH        PTSUNNY   40  35  83 SW5       30.08F
$$

WIZ032>034-041-042-053>061-301600-
SOUTHWEST WISCONSIN

CITY           SKY/WX    TMP DP  RH WIND       PRES   REMARKS
LA CROSSE      CLOUDY    42  36  79 S6        30.08F
SPARTA         CLOUDY    38  35  85 CALM      30.09S
VIROQUA        CLOUDY    42  35  76 SW5       30.07F
BOSCOBEL       PTSUNNY   38  35  89 CALM      30.11F
PRAIRIE DU CHI CLOUDY    39  35  84 CALM      30.09F
PLATTEVILLE    CLOUDY    40  37  87 S5        30.11S
$$

WIZ056-057-062-063-064-067-068-301600-
SOUTH CENTRAL WISCONSIN

CITY           SKY/WX    TMP DP  RH WIND       PRES   REMARKS
REEDSBURG      CLOUDY    38  34  88 CALM      30.09S
BARABOO/DELLS  CLOUDY    40  34  79 SW3       30.09S
LONE ROCK      CLOUDY    42  34  73 CALM      30.10F
MINERAL POINT  CLOUDY    43  36  75 CALM      30.09F
MADISON        CLOUDY    43  34  70 SW5       30.10S
MIDDLETON      CLOUDY    43  34  70 W5        30.10S
WATERTOWN      PTSUNNY   40  36  86 S3        30.09F
MONROE         PTSUNNY   39  34  81 SW6       30.09S WCI  35
JANESVILLE     CLOUDY    41  36  81 S3        30.10F
$$

WIZ051-052-058>065-066-070>072-301600-
SOUTHEAST WISCONSIN

CITY           SKY/WX    TMP DP  RH WIND       PRES   REMARKS
MILWAUKEE      PTSUNNY   42  34  73 SW7       30.11F
WAUKESHA       MOSUNNY   37  34  87 CALM      30.12S
MILWAUKEE/TIMM CLOUDY    39  32  75 CALM      30.12S
RACINE         CLOUDY    43  35  73 SW6       30.13F
BURLINGTON     PTSUNNY   40  35  85 SW3       30.11F
KENOSHA        CLOUDY    42  36  79 SW6       30.12F
FOND DU LAC    PTSUNNY   41  35  79 SW6       30.09F
SHEBOYGAN      CLOUDY    43  35  73 SW7       30.09F
WEST BEND      PTSUNNY   41  34  75 SW8       30.09S
JUNEAU         PTSUNNY   39  35  86 S5        30.10F
$$

LSZ147-162-301600-
LAKE SUPERIOR

STATION/POSITION TIME  TEMP    WIND        PRES    WAVE
                       AIR SEA DIR/SP/G            HT/PER
                 (UTC) (F)     (DEG/KT/KT) (MB)    (FT/S)
W MID LAKE BUOY  1450   41 45  250/  4/  6 1017.4S   2/ 4
DEVILS ISLAND    1500   41     300/ 10/ 13 1018.6R
PORT WING        1400   42     290/ 11/ 13 1018.3R
SAXON HARBOR     1400   40     210/  4/  6 1017.9
$$

LMZ867-665-643>646-301600-
LAKE MICHIGAN

STATION/POSITION TIME  TEMP    WIND        PRES    WAVE
                       AIR SEA DIR/SP/G            HT/PER
                 (UTC) (F)     (DEG/KT/KT) (MB)    (FT/S)
CHAMBERS ISLAND  1400   43     220/  4/  9 1018.3S
N MID LAKE BUOY  1450   42 50   80/  2/  2 1018.4F   0
NORTHPORT PIER   1400   44      CALM  /  2 1017.9F
KEWAUNEE LAKESHO 1500   43     240/  7/  9 1017.7R
SHEBOYGAN LAKESH 1500   44 50  240/  9/ 10 1019.6F
PORT WASHINGTON  1400   43     270/  4/  6 1020.0S
ATWATER BUOY     1500   44     240/ 10/ 12 1020.3F
MILWAUKEE LAKESH 1500   43     240/  9/ 10   N/A
S MID LAKE BUOY  1450   48 53  230/ 12/ 16 1020.3R   1/ 5
KENOSHA   LAKESH 1500   43     220/  5/  8 1020.0F
$$

TC  - TEMPERATURE IN CELSIUS
VSB - VISIBILITY IN STATUTE MILES
WCI - WIND CHILL INDEX
HX  - HEAT INDEX




USA.gov is the U.S. government's official web portal to all federal, state and local government web resources and services.